Location: R�serve Fauniques des Laurentides
(47.3100°N, 71.1900°W)
Time: 20:20:09
(UTC-04:00)

Amateur Radio Satellites - All Passes

Search period start: 01 October 2014 19:50
Search period end: 02 October 2014 19:50
Location: R�serve Fauniques des Laurentides, 47.3100°N, 71.1900°W

Satellite Date Start Highest point End Downlink Frequencies (MHz)
Time Altitude Azimuth
PCSat 01 Oct 19:57:03 20:00:35 18° 255° (WSW) 20:04:07 145.825 MHz
KITSAT 1 01 Oct 20:02:22 20:09:09 28° 333° (NNW) 20:15:57 435.175 FM
STRAND 1 01 Oct 20:11:55 20:17:01 64° 289° (WNW) 20:22:06 ?
Oscar 11 01 Oct 20:15:57 20:18:37 16° 60° (ENE) 20:21:16 145.825 FM, Beacon 2401.500 USB
FUNcube-1 01 Oct 20:42:10 20:44:35 14° 58° (ENE) 20:47:00 145.950 - 145.970 MHz USB
SO-50 01 Oct 20:42:25 20:46:37 36° 318° (NW) 20:50:57 436.795 FM
Saudisat 1A 01 Oct 20:44:09 20:47:21 19° 32° (NNE) 20:50:31 436.775 MHz
UKube-1 01 Oct 20:44:26 20:48:25 37° 68° (ENE) 20:52:25 145.840 MHz, 145.915 MHz
UOSAT-12 01 Oct 21:05:58 21:10:29 54° 122° (ESE) 21:15:06 437.025 FM, 437.400 FM
HO-68 01 Oct 21:20:34 21:27:33 56° 259° (WSW) 21:34:36 435.675 MHz FM
ZACube-1 01 Oct 21:25:25 21:29:31 34° 67° (ENE) 21:33:40 437.345 MHz
Oscar 11 01 Oct 21:49:59 21:54:19 65° 258° (WSW) 21:58:41 145.825 FM, Beacon 2401.500 USB
STRAND 1 01 Oct 21:53:49 21:55:14 11° 308° (NW) 21:56:39 ?
KITSAT 1 01 Oct 22:01:56 22:07:39 20° 3° (N) 22:13:20 435.175 FM
FUNcube-1 01 Oct 22:15:45 22:20:18 83° 257° (WSW) 22:24:58 145.950 - 145.970 MHz USB
ISS 01 Oct 22:18:55 22:22:02 38° 145° (SE) 22:25:10 145.800 FM
UKube-1 01 Oct 22:21:09 22:24:43 25° 265° (W) 22:28:18 145.840 MHz, 145.915 MHz
Saudisat 1A 01 Oct 22:23:06 22:27:34 87° 52° (NE) 22:31:59 436.775 MHz
SO-50 01 Oct 22:26:31 22:28:33 13° 341° (NNW) 22:30:36 436.795 FM
UOSAT-12 01 Oct 22:46:49 22:50:55 29° 322° (NW) 22:55:04 437.025 FM, 437.400 FM
ZACube-1 01 Oct 23:01:53 23:05:55 30° 265° (W) 23:10:01 437.345 MHz
ISS 01 Oct 23:55:25 23:58:41 53° 344° (NNW) 00:01:58 145.800 FM
KITSAT 1 01 Oct 23:58:44 00:05:55 33° 32° (NNE) 00:13:03 435.175 FM
Saudisat 1A 02 Oct 00:04:30 00:06:29 13° 251° (WSW) 00:08:27 436.775 MHz
UOSAT-12 02 Oct 00:31:04 00:32:37 11° 345° (NNW) 00:34:11 437.025 FM, 437.400 FM
RS-15 02 Oct 00:33:18 00:40:12 19° 98° (E) 00:47:01 29.354 - 29.394 USB, Beacon 29.352 USB
Oscar 16 02 Oct 00:49:54 00:50:29 10° 85° (E) 00:51:03 437.025 USB, Beacon 2401.1428
ISS 02 Oct 01:32:38 01:35:47 38° 4° (N) 01:38:55 145.800 FM
Oscar 19 02 Oct 01:44:37 01:49:14 32° 95° (E) 01:53:48 437.125 CW, 437.150 USB
SO-50 02 Oct 01:50:09 01:53:42 20° 31° (NNE) 01:57:18 436.795 FM
KITSAT 1 02 Oct 01:54:10 02:02:18 87° 237° (WSW) 02:10:23 435.175 FM
JAS-1B 02 Oct 01:57:01 02:01:48 27° 94° (E) 02:06:50 435.800 - 435.900 CW/SSB
ITAMSAT 1 02 Oct 01:58:54 02:02:40 20° 91° (E) 02:06:25 435.822 SSB
Uribyol 2 02 Oct 01:59:27 02:03:23 21° 91° (E) 02:07:17 436.500 FM
UOSAT-12 02 Oct 02:14:04 02:14:58 10° 11° (N) 02:15:52 437.025 FM, 437.400 FM
Oscar 16 02 Oct 02:25:33 02:30:44 75° 103° (ESE) 02:35:52 437.025 USB, Beacon 2401.1428
AO-Echo 02 Oct 02:27:53 02:32:39 42° 98° (E) 02:37:31 ?
AO-27 02 Oct 02:36:49 02:41:47 42° 98° (E) 02:46:43 436.795 MHz FM
RS-15 02 Oct 02:39:35 02:50:31 74° 121° (ESE) 03:01:24 29.354 - 29.394 USB, Beacon 29.352 USB
Gurwin Techsat 1B 02 Oct 03:06:40 03:11:40 40° 97° (E) 03:16:38 435.225 FM
ISS 02 Oct 03:09:25 03:12:46 81° 24° (NNE) 03:16:05 145.800 FM
OPAL 02 Oct 03:11:44 03:15:28 20° 56° (NE) 03:19:13 ?
Oscar 19 02 Oct 03:23:54 03:28:37 37° 294° (WNW) 03:33:18 437.125 CW, 437.150 USB
SO-50 02 Oct 03:30:09 03:34:59 83° 52° (NE) 03:39:52 436.795 FM
TMSAT-1 02 Oct 03:34:37 03:39:49 52° 100° (E) 03:44:58 436.925 FM
ITAMSAT 1 02 Oct 03:37:25 03:42:36 63° 289° (WNW) 03:47:46 435.822 SSB
Uribyol 2 02 Oct 03:38:05 03:43:15 59° 290° (WNW) 03:48:22 436.500 FM
JAS-1B 02 Oct 03:47:22 03:52:48 48° 293° (WNW) 03:58:32 435.800 - 435.900 CW/SSB
AO-7 02 Oct 03:47:36 03:53:43 22° 90° (E) 03:59:47 29.400 - 29.500 MHz
KITSAT 1 02 Oct 03:50:56 03:56:37 22° 257° (WSW) 04:02:18 435.175 FM
Uosat F 02 Oct 03:52:01 03:54:18 13° 88° (E) 03:56:35 435.120 FM
UOSAT-12 02 Oct 03:52:58 03:56:50 24° 34° (NE) 04:00:40 437.025 FM, 437.400 FM
Oscar 16 02 Oct 04:06:04 04:09:31 18° 302° (WNW) 04:12:56 437.025 USB, Beacon 2401.1428
AO-Echo 02 Oct 04:07:00 04:11:16 29° 295° (WNW) 04:15:39 ?
AO-27 02 Oct 04:16:37 04:21:10 31° 296° (WNW) 04:25:42 436.795 MHz FM
ISS 02 Oct 04:46:37 04:49:09 20° 222° (SW) 04:51:40 145.800 FM
Gurwin Techsat 1B 02 Oct 04:46:51 04:51:33 33° 296° (WNW) 04:56:14 435.225 FM
OPAL 02 Oct 04:48:38 04:53:50 71° 255° (WSW) 04:59:04 ?
RS-15 02 Oct 04:53:22 05:03:44 45° 328° (NNW) 05:14:13 29.354 - 29.394 USB, Beacon 29.352 USB
SO-50 02 Oct 05:12:05 05:14:58 16° 250° (WSW) 05:17:51 436.795 FM
JAS-2 02 Oct 05:12:29 05:17:30 22° 90° (E) 05:22:51 435.800 - 435.900 CW/SSB, 435.910 FM
TMSAT-1 02 Oct 05:15:07 05:19:26 26° 298° (WNW) 05:23:45 436.925 FM
MaSat-1 02 Oct 05:15:25 05:20:01 45° 113° (ESE) 05:24:21 437.345 MHz
ITAMSAT 1 02 Oct 05:19:34 05:21:06 11° 308° (NW) 05:22:38 435.822 SSB
Uribyol 2 02 Oct 05:20:40 05:21:40 11° 309° (NW) 05:22:40 436.500 FM
Uosat F 02 Oct 05:28:43 05:33:47 88° 286° (WNW) 05:38:50 435.120 FM
UOSAT-12 02 Oct 05:32:45 05:37:29 74° 235° (SW) 05:42:09 437.025 FM, 437.400 FM
Hamsat 02 Oct 05:38:13 05:40:56 17° 90° (E) 05:43:37 145.90 MHz
AO-7 02 Oct 05:39:12 05:47:33 89° 290° (WNW) 05:55:52 29.400 - 29.500 MHz
STRAND 1 02 Oct 05:52:28 05:57:08 38° 66° (ENE) 06:01:51 ?
MaSat-1 02 Oct 06:52:28 06:56:36 29° 310° (NW) 07:00:29 437.345 MHz
JAS-2 02 Oct 06:56:29 07:03:05 82° 287° (WNW) 07:10:30 435.800 - 435.900 CW/SSB, 435.910 FM
SO-67 02 Oct 07:05:09 07:07:34 18° 92° (E) 07:09:58 435.3500 MHz FM
Uosat F 02 Oct 07:09:08 07:11:51 15° 305° (NW) 07:14:34 435.120 FM
RS-15 02 Oct 07:10:09 07:19:36 31° 2° (N) 07:29:13 29.354 - 29.394 USB, Beacon 29.352 USB
Hamsat 02 Oct 07:13:07 07:17:13 51° 288° (WNW) 07:21:15 145.90 MHz
UOSAT-12 02 Oct 07:15:55 07:16:47 10° 253° (WSW) 07:17:38 437.025 FM, 437.400 FM
STRAND 1 02 Oct 07:31:52 07:36:23 32° 264° (W) 07:40:57 ?
AO-7 02 Oct 07:32:57 07:39:22 26° 312° (NW) 07:45:48 29.400 - 29.500 MHz
Sapphire 02 Oct 08:33:06 08:37:11 22° 108° (ESE) 08:41:17 437.095 MHz 1200 baud AX-25 AFSK
SO-67 02 Oct 08:37:33 08:40:40 32° 290° (WNW) 08:43:46 435.3500 MHz FM
JAS-2 02 Oct 08:43:00 08:47:24 19° 304° (NW) 08:52:06 435.800 - 435.900 CW/SSB, 435.910 FM
HO-68 02 Oct 08:45:09 08:50:55 25° 92° (E) 08:56:39 435.675 MHz FM
PCSat 02 Oct 08:57:28 09:02:24 37° 113° (ESE) 09:07:22 145.825 MHz
RS-15 02 Oct 09:24:39 09:35:17 49° 35° (NE) 09:46:14 29.354 - 29.394 USB, Beacon 29.352 USB
Oscar 11 02 Oct 09:35:20 09:38:22 18° 91° (E) 09:41:23 145.825 FM, Beacon 2401.500 USB
FUNcube-1 02 Oct 10:03:04 10:05:58 17° 89° (E) 10:08:49 145.950 - 145.970 MHz USB
UKube-1 02 Oct 10:05:14 10:09:25 43° 99° (E) 10:13:35 145.840 MHz, 145.915 MHz
Sapphire 02 Oct 10:14:45 10:20:08 65° 307° (NW) 10:25:33 437.095 MHz 1200 baud AX-25 AFSK
HO-68 02 Oct 10:32:05 10:39:15 72° 291° (WNW) 10:46:24 435.675 MHz FM
PCSat 02 Oct 10:40:39 10:45:47 42° 313° (NW) 10:50:57 145.825 MHz
ZACube-1 02 Oct 10:47:30 10:51:54 44° 98° (E) 10:56:10 437.345 MHz
Oscar 11 02 Oct 11:10:39 11:14:50 49° 289° (WNW) 11:18:59 145.825 FM, Beacon 2401.500 USB
Oscar 19 02 Oct 11:29:38 11:31:10 11° 52° (NE) 11:32:43 437.125 CW, 437.150 USB
RS-15 02 Oct 11:37:20 11:48:17 68° 241° (WSW) 11:59:41 29.354 - 29.394 USB, Beacon 29.352 USB
FUNcube-1 02 Oct 11:38:15 11:42:46 60° 288° (WNW) 11:47:09 145.950 - 145.970 MHz USB
UKube-1 02 Oct 11:41:58 11:45:23 23° 297° (WNW) 11:48:47 145.840 MHz, 145.915 MHz
Sapphire 02 Oct 12:01:00 12:04:38 18° 329° (NNW) 12:08:16 437.095 MHz 1200 baud AX-25 AFSK
Oscar 16 02 Oct 12:07:55 12:11:57 24° 61° (ENE) 12:16:00 437.025 USB, Beacon 2401.1428
AO-Echo 02 Oct 12:09:42 12:10:58 11° 54° (NE) 12:12:15 ?
HO-68 02 Oct 12:21:14 12:25:48 18° 312° (NW) 12:30:23 435.675 MHz FM
AO-27 02 Oct 12:21:45 12:24:33 15° 55° (NE) 12:27:21 436.795 MHz FM
ZACube-1 02 Oct 12:24:26 12:28:02 23° 297° (WNW) 12:31:35 437.345 MHz
PCSat 02 Oct 12:28:03 12:30:43 14° 336° (NNW) 12:33:23 145.825 MHz
JAS-1B 02 Oct 12:45:28 12:51:53 37° 64° (ENE) 12:57:29 435.800 - 435.900 CW/SSB
Gurwin Techsat 1B 02 Oct 12:54:12 12:57:02 15° 55° (NE) 12:59:51 435.225 FM
AO-7 02 Oct 13:03:23 13:06:42 13° 34° (NNE) 13:10:00 29.400 - 29.500 MHz
Oscar 19 02 Oct 13:04:24 13:09:32 64° 71° (ENE) 13:14:41 437.125 CW, 437.150 USB
ITAMSAT 1 02 Oct 13:19:43 13:24:31 40° 67° (ENE) 13:29:22 435.822 SSB
Uribyol 2 02 Oct 13:20:08 13:25:01 43° 67° (ENE) 13:29:56 436.500 FM
TMSAT-1 02 Oct 13:21:06 13:24:36 18° 57° (ENE) 13:28:07 436.925 FM
MaSat-1 02 Oct 13:27:59 13:30:29 18° 44° (NE) 13:32:46 437.345 MHz
AO-Echo 02 Oct 13:44:13 13:48:53 73° 73° (ENE) 13:53:39 ?
Oscar 16 02 Oct 13:45:50 13:50:57 57° 259° (W) 13:56:05 437.025 USB, Beacon 2401.1428
RS-15 02 Oct 13:52:09 13:58:28 17° 263° (W) 14:04:56 29.354 - 29.394 USB, Beacon 29.352 USB
AO-27 02 Oct 13:58:06 14:03:18 85° 74° (ENE) 14:08:32 436.795 MHz FM
Saudisat 1A 02 Oct 14:11:23 14:15:46 75° 125° (SE) 14:20:12 436.775 MHz
Gurwin Techsat 1B 02 Oct 14:30:53 14:36:12 82° 74° (ENE) 14:41:33 435.225 FM
JAS-1B 02 Oct 14:35:29 14:42:31 45° 260° (W) 14:48:32 435.800 - 435.900 CW/SSB
Oscar 19 02 Oct 14:45:41 14:49:20 19° 270° (W) 14:53:00 437.125 CW, 437.150 USB
AO-7 02 Oct 14:49:44 14:57:20 43° 57° (ENE) 15:04:57 29.400 - 29.500 MHz
TMSAT-1 02 Oct 14:58:37 15:03:55 78° 256° (WSW) 15:09:15 436.925 FM
ITAMSAT 1 02 Oct 14:59:35 15:04:07 30° 265° (W) 15:08:42 435.822 SSB
Uribyol 2 02 Oct 15:00:11 15:04:38 29° 266° (W) 15:09:08 436.500 FM
MaSat-1 02 Oct 15:03:57 15:07:09 37° 248° (WSW) 15:09:55 437.345 MHz
Uosat F 02 Oct 15:07:36 15:11:43 27° 62° (ENE) 15:15:52 435.120 FM
AO-Echo 02 Oct 15:25:46 15:28:15 14° 272° (W) 15:30:46 ?
JAS-2 02 Oct 15:33:08 15:34:15 11° 48° (NE) 15:35:22 435.800 - 435.900 CW/SSB, 435.910 FM
Sapphire 02 Oct 15:34:03 15:36:35 13° 23° (NNE) 15:39:07 437.095 MHz 1200 baud AX-25 AFSK
AO-27 02 Oct 15:40:50 15:43:30 14° 272° (W) 15:46:11 436.795 MHz FM
Saudisat 1A 02 Oct 15:52:24 15:55:50 22° 326° (NW) 15:59:17 436.775 MHz
PCSat 02 Oct 15:59:08 16:02:40 17° 30° (NNE) 16:06:11 145.825 MHz
Gurwin Techsat 1B 02 Oct 16:13:52 16:16:50 15° 272° (W) 16:19:50 435.225 FM
KITSAT 1 02 Oct 16:25:53 16:33:20 43° 112° (ESE) 16:40:48 435.175 FM
Hamsat 02 Oct 16:34:39 16:37:44 20° 63° (ENE) 16:40:49 145.90 MHz
AO-7 02 Oct 16:41:55 16:49:58 54° 258° (WSW) 16:58:04 29.400 - 29.500 MHz
TMSAT-1 02 Oct 16:43:10 16:44:43 11° 275° (W) 16:46:16 436.925 FM
Uosat F 02 Oct 16:45:30 16:50:17 46° 261° (W) 16:55:07 435.120 FM
OPAL 02 Oct 16:56:09 17:00:09 23° 95° (E) 17:04:06 ?
Oscar 10/S400 02 Oct 17:07:36 17:25:18 42° 159° (SSE) 18:14:28 145.825 - 145.975 CW/USB, Beacon 145.810 USB
JAS-2 02 Oct 17:12:58 17:18:04 60° 70° (ENE) 17:23:35 435.800 - 435.900 CW/SSB, 435.910 FM
Sapphire 02 Oct 17:16:28 17:21:35 40° 46° (NE) 17:26:40 437.095 MHz 1200 baud AX-25 AFSK
PCSat 02 Oct 17:41:48 17:47:13 61° 52° (NE) 17:52:35 145.825 MHz
SO-67 02 Oct 17:42:36 17:43:40 11° 62° (ENE) 17:44:44 435.3500 MHz FM
SO-50 02 Oct 17:51:19 17:52:52 12° 108° (ESE) 17:54:25 436.795 FM
Hamsat 02 Oct 18:09:11 18:13:22 49° 261° (W) 18:17:34 145.90 MHz
KITSAT 1 02 Oct 18:20:39 18:28:34 56° 314° (NW) 18:36:32 435.175 FM
OPAL 02 Oct 18:34:23 18:39:21 53° 293° (WNW) 18:44:14 ?
Sapphire 02 Oct 18:59:59 19:05:02 40° 246° (WSW) 19:10:03 437.095 MHz 1200 baud AX-25 AFSK
JAS-2 02 Oct 19:00:03 19:03:48 20° 271° (W) 19:07:43 435.800 - 435.900 CW/SSB, 435.910 FM
SO-67 02 Oct 19:12:48 19:16:12 60° 259° (W) 19:19:38 435.3500 MHz FM
HO-68 02 Oct 19:17:32 19:23:25 29° 55° (NE) 19:29:20 435.675 MHz FM
PCSat 02 Oct 19:25:57 19:30:13 24° 252° (WSW) 19:34:27 145.825 MHz
SO-50 02 Oct 19:28:07 19:32:37 84° 126° (SE) 19:37:17 436.795 FM
STRAND 1 02 Oct 19:38:22 19:43:31 69° 103° (ESE) 19:48:39 ?
